Overview Statistics Trail Chart Weather Telemetry Raw packets
 

This is the latest recevied weather packets stored in our database for station/object KQ4LLM. If no packets are shown the sender has not sent any weather packets the latest 10 day(s).

<< 66 67 68 69 70 71 72 >>
Time Temp. Humidity Pressure Rain* Wind** Luminosity Snow
1788215954 28.33° C 70% - 0 mm - - -
1788215650 28.89° C 68% - 0 mm - - -
1788215346 28.89° C 67% - 0 mm - - -
1788215042 28.89° C 67% - 0 mm - - -
1788214736 28.89° C 65% - 0 mm - - -
1788214432 29.44° C 65% - 0 mm - - -
1788214127 29.44° C 63% - 0 mm - - -
1788213823 30° C 61% - 0 mm - - -
1788213518 30.56° C 54% - 0 mm - - -
1788213220 30.56° C 58% - 0 mm - - -
1788212910 30.56° C 58% - 0 mm - - -
1788212607 31.11° C 54% - 0 mm - - -
1788212302 30.56° C 54% - 0 mm - - -
1788211999 30.56° C 58% - 0 mm - - -
1788211694 30.56° C 56% - 0 mm - - -
1788211390 30.56° C 57% - 0 mm - - -
1788211089 30.56° C 59% - 0 mm - - -
1788210784 30.56° C 58% - 0 mm - - -
1788210478 31.67° C 59% - 0 mm - - -
1788210174 31.67° C 55% - 0 mm - - -
1788209874 31.67° C 53% - 0 mm - - -
1788209570 31.67° C 57% - 0 mm - - -
1788209269 31.67° C 53% - 0 mm - - -
1788208969 31.67° C 54% - 0 mm - - -
1788208668 31.67° C 55% - 0 mm - - -

* Rain latest hour (hover to see other rain measurements)
** Current wind speed in m/s (hover to see current wind gust speed)